Regional Weather Roundup
Issued by NWS

Home | Current Version | Previous Version | Graphics & Text | Print | Product List | Glossary On
Versions: 1 2 3 4 5 6 7 8 9 10 11 12 13 14 15 16 17 18 19 20 21 22 23 24 25 26 27 28 29 30 31 32 33 34 35 36 37 38 39 40 41 42 43 44 45 46 47 48 49 50
000
ASUS43 KTOP 172359
RWRKS

WEATHER ROUNDUP FOR KANSAS
NATIONAL WEATHER SERVICE GOODLAND KS
700 PM CDT THU APR 17 2014

NOTE:  "FAIR" INDICATES FEW OR NO CLOUDS BELOW 12,000 FEET WITH NO
SIGNIFICANT WEATHER AND/OR OBSTRUCTIONS TO VISIBILITY.

KSZ001>006-013>018-027>032-041>047-180100-
NORTHWEST KANSAS

CITY           SKY/WX    TMP DP  RH WIND       PRES   REMARKS
GOODLAND       MOSUNNY   53  37  54 S23G29    30.14F
6HR MIN TEMP:  43; 6HR MAX TEMP:  54;

HAYS           SUNNY     55  30  38 SE5       30.21S
HILL CITY      SUNNY     57  30  35 VRB5      30.19S
6HR MIN TEMP:  44; 6HR MAX TEMP:  58;

RUSSELL        SUNNY     56  30  37 SE7       30.20S
6HR MIN TEMP:  45; 6HR MAX TEMP:  58;

$$

KSZ061>065-074>080-084>089-180100-
SOUTHWEST KANSAS

CITY           SKY/WX    TMP DP  RH WIND       PRES   REMARKS
DODGE CITY     MOSUNNY   51  40  65 S6        30.22S
6HR MIN TEMP:  39; 6HR MAX TEMP:  52;

ELKHART          N/A     53  35  50 SE15        N/A
GARDEN CITY    MOSUNNY   50  41  71 SW9       30.21S
6HR MIN TEMP:  39; 6HR MAX TEMP:  51;

GREAT BEND     SUNNY     55  30  38 S7        30.21S
LIBERAL        SUNNY     52  39  62 E12       30.23S
$$

KSZ066>073-081>083-090>101-180100-
SOUTHEAST KANSAS

CITY           SKY/WX    TMP DP  RH WIND       PRES   REMARKS
CHANUTE        CLOUDY    47  35  63 N5        30.29S
6HR MIN TEMP:  45; 6HR MAX TEMP:  49; 6HR PCP: TRACE;

COFFEYVILLE    LGT RAIN  48  41  76 N9        30.27R
6HR MIN TEMP:  48; 6HR MAX TEMP:  56; 6HR PCP: TRACE;

HUTCHINSON     SUNNY     53  30  41 CALM      30.23S
6HR MIN TEMP:  39; 6HR MAX TEMP:  54;

NEWTON         MOSUNNY   50  30  46 E3        30.27S
PARSONS        LGT RAIN  48  39  71 N8        30.28S
6HR MIN TEMP:  47; 6HR MAX TEMP:  54; 6HR PCP: TRACE;

WICHITA INTL   MOSUNNY   51  37  58 SE7       30.23F
6HR MIN TEMP:  40; 6HR MAX TEMP:  52; 6HR PCP: TRACE;

WICHITA JABRA  MOSUNNY   49  37  63 MISG      30.24S
6HR MIN TEMP:  38; 6HR MAX TEMP:  50; 6HR PCP: TRACE;

WINFIELD       PTSUNNY   49  36  61 NE7       30.25F
6HR MIN TEMP:  46; 6HR MAX TEMP:  51; 6HR PCP: TRACE;

$$

KSZ007>012-019>026-033>040-048>060-102>105-180100-
NORTHEAST KANSAS

CITY           SKY/WX    TMP DP  RH WIND       PRES   REMARKS
CONCORDIA      SUNNY     55  27  34 E3        30.22S
6HR MIN TEMP:  45; 6HR MAX TEMP:  56;

EMPORIA        CLOUDY    46  33  60 E7        30.26S HAZE
6HR MIN TEMP:  40; 6HR MAX TEMP:  48; 6HR PCP: TRACE;

LAWRENCE       MOSUNNY   51  34  52 SE3       30.27F
6HR MIN TEMP:  45; 6HR MAX TEMP:  51;

MANHATTAN      SUNNY     55  31  39 E5        30.24S
6HR MIN TEMP:  45; 6HR MAX TEMP:  57;

OLATHE IND     PTSUNNY   46  33  60 CALM      30.28S
6HR MIN TEMP:  42; 6HR MAX TEMP:  48; 6HR PCP: TRACE;

OLATHE EXE     PTSUNNY   46  34  62 CALM      30.27S
6HR MIN TEMP:  42; 6HR MAX TEMP:  48; 6HR PCP: TRACE;

SALINA         SUNNY     56  29  35 VRB3      30.23S
6HR MIN TEMP:  45; 6HR MAX TEMP:  58;

TOPEKA BILLARD MOSUNNY   53  33  46 E3        30.26F
6HR MIN TEMP:  45; 6HR MAX TEMP:  54;

TOPEKA FORBES  MOSUNNY   51  32  48 CALM      30.26S
6HR MIN TEMP:  43; 6HR MAX TEMP:  52;

$$



USA.gov is the U.S. government's official web portal to all federal, state and local government web resources and services.